Baker City, OR

7:00 PM PST on February 11, 2016 (GMT -0800)
Baker City Municipal

Weather History for KBKE - January, 2013

Change the Weather History Date:

Tuesday, January 22, 2013

  Actual Average Record
Temperature  
Mean Temperature 11 °F 26 °F  
Max Temperature 26 °F 34 °F 49 °F (1981)
Min Temperature -4 °F 17 °F -28 °F (1962)
Degree Days  
Heating Degree Days 54 40  
Month to date heating degree days 1148 889  
Since 1 July heating degree days 4133 4174  
Cooling Degree Days 0 0  
Month to date cooling degree days 0 0  
Year to date cooling degree days 0 0  
Moisture  
Dew Point 5 °F    
Average Humidity 74    
Maximum Humidity 87    
Minimum Humidity 60    
Precipitation  
Precipitation 0.00 in 0.02 in 0.44 in (1970)
Month to date precipitation 0.28 0.60  
Year to date precipitation 0.28 0.60  
Sea Level Pressure  
Sea Level Pressure 30.47 in    
Wind  
Wind Speed 3 mph (SSW)    
Max Wind Speed 18 mph    
Max Gust Speed 22 mph    
Visibility 7 miles    
Events      
T = Trace of Precipitation, MM = Missing Value Source: NWS Daily Summary

Daily Weather History Graph

Daily Weather History Graph

Search for Another Location

Airport or City:

Trip Planner

Search our weather history database for the weather conditions in past years. The results will help you decide how hot, cold, wet, or windy it might be!

Date:

Astronomy

Jan. 22, 2013 Rise Set
Actual Time 7:20 AM PST 4:46 PM PST
Civil Twilight 6:48 AM PST 5:18 PM PST
Nautical Twilight 6:12 AM PST 5:53 PM PST
Astronomical Twilight 5:37 AM PST 6:28 PM PST
Moon 1:10 PM PST (1/22) 3:47 AM PST (1/22)
Length of Visible Light 10h 29m
Length of Day
9h 25m
Waxing Gibbous, 83% of the Moon is Illuminated
Jan 22
Waxing Gibbous
Jan 26
Full
Feb 3
Last Quarter
Feb 9
New
Feb 17
First Quarter

Hourly Weather History & Observations

Time (PST) Temp. Windchill Dew Point Humidity Pressure Visibility Wind Dir Wind Speed Gust Speed Precip Events Conditions
12:53 AM 1.0 °F - -2.9 °F 83% 30.53 in 3.0 mi Calm Calm - N/A   Clear
1:53 AM -2.9 °F - -8.0 °F 79% 30.54 in 5.0 mi Calm Calm - N/A   Haze
2:53 AM 1.9 °F -7.6 °F -2.0 °F 83% 30.51 in 5.0 mi South 4.6 mph - N/A   Clear
3:53 AM -2.9 °F - -7.1 °F 82% 30.53 in 5.0 mi Calm Calm - N/A   Clear
4:53 AM -2.0 °F - -7.1 °F 79% 30.53 in 5.0 mi Calm Calm - N/A   Haze
5:53 AM -2.9 °F - -8.0 °F 79% 30.55 in 5.0 mi Calm Calm - N/A   Haze
6:53 AM -0.9 °F - -7.1 °F 75% 30.56 in 4.0 mi Calm Calm - N/A   Haze
7:53 AM 1.0 °F - -6.0 °F 72% 30.53 in 4.0 mi Calm Calm - N/A   Haze
8:53 AM 6.1 °F - -0.0 °F 76% 30.52 in 4.0 mi Calm Calm - N/A   Haze
9:53 AM 8.1 °F - 5.0 °F 87% 30.53 in 5.0 mi Calm Calm - N/A   Clear
10:53 AM 12.9 °F - 9.0 °F 84% 30.51 in 5.0 mi Calm Calm - N/A   Clear
11:53 AM 19.9 °F 14.9 °F 10.9 °F 68% 30.47 in 7.0 mi West 3.5 mph - N/A   Clear
12:53 PM 23.0 °F 15.8 °F 12.9 °F 65% 30.44 in 7.0 mi WSW 5.8 mph - N/A   Clear
1:53 PM 25.0 °F 19.3 °F 14.0 °F 63% 30.42 in 8.0 mi WNW 4.6 mph - N/A   Clear
2:53 PM 25.0 °F 20.7 °F 12.9 °F 60% 30.40 in 8.0 mi Variable 3.5 mph - N/A   Clear
3:53 PM 23.0 °F - 12.9 °F 65% 30.42 in 8.0 mi Calm Calm - N/A   Clear
4:53 PM 21.9 °F 7.8 °F 12.0 °F 66% 30.42 in 10.0 mi ESE 17.3 mph 21.9 mph N/A   Clear
5:53 PM 19.0 °F 9.0 °F 12.0 °F 74% 30.43 in 9.0 mi ESE 8.1 mph - N/A   Clear
6:53 PM 19.0 °F 13.9 °F 10.9 °F 71% 30.42 in 10.0 mi SE 3.5 mph - N/A   Clear
7:53 PM 21.0 °F 12.4 °F 10.9 °F 65% 30.40 in 10.0 mi ESE 6.9 mph - N/A   Clear
8:53 PM 19.0 °F - 10.0 °F 68% 30.40 in 10.0 mi Calm Calm - N/A   Clear
9:53 PM 19.0 °F 13.9 °F 10.0 °F 68% 30.39 in 10.0 mi WSW 3.5 mph - N/A   Clear
10:53 PM 17.1 °F - 10.0 °F 74% 30.39 in 9.0 mi Calm Calm - N/A   Clear
11:53 PM 12.9 °F 6.9 °F 9.0 °F 84% 30.36 in 8.0 mi SSW 3.5 mph - N/A   Clear